Time,TemperatureF,DewpointF,PressureIn,WindDirection,WindDirectionDegrees,WindSpeedMPH,WindSpeedGustMPH,Humidity,HourlyPrecipIn,Conditions,Clouds,dailyrainin,SoftwareType,DateUTC
2013-01-22 00:23:00,-8.0,-99.9,30.13,West,263,6.0,13.0,-999,-99.99,,,-99.99,,2013-01-22 05:23:00,
2013-01-22 00:33:00,-8.0,-99.9,30.13,West,263,6.0,13.0,-999,-99.99,,,-99.99,,2013-01-22 05:33:00,
2013-01-22 00:53:00,-8.0,-99.9,30.13,West,264,6.0,12.0,-999,-99.99,,,-99.99,,2013-01-22 05:53:00,
2013-01-22 01:12:00,-8.0,-99.9,30.13,West,267,5.0,11.0,-999,-99.99,,,-99.99,,2013-01-22 06:12:00,
2013-01-22 01:53:00,-8.0,-99.9,30.13,West,266,6.0,13.0,-999,-99.99,,,-99.99,,2013-01-22 06:53:00,
2013-01-22 02:22:00,-9.0,-99.9,30.14,WSW,254,7.0,11.0,-999,-99.99,,,-99.99,,2013-01-22 07:22:00,
2013-01-22 02:43:00,-9.0,-99.9,30.14,West,260,5.0,11.0,-999,-99.99,,,-99.99,,2013-01-22 07:43:00,
2013-01-22 03:22:00,-8.0,-99.9,30.15,West,271,6.0,10.0,-999,-99.99,,,-99.99,,2013-01-22 08:22:00,
2013-01-22 03:53:00,-9.0,-99.9,30.16,WSW,256,8.0,13.0,-999,-99.99,,,-99.99,,2013-01-22 08:53:00,
2013-01-22 04:12:00,-9.0,-99.9,30.16,WSW,256,8.0,10.0,-999,-99.99,,,-99.99,,2013-01-22 09:12:00,
2013-01-22 04:53:00,-9.0,-99.9,30.16,WSW,257,8.0,13.0,-999,-99.99,,,-99.99,,2013-01-22 09:53:00,
2013-01-22 05:22:00,-9.0,-99.9,30.16,WSW,249,9.0,14.0,-999,-99.99,,,-99.99,,2013-01-22 10:22:00,
2013-01-22 05:43:00,-9.0,-99.9,30.16,West,265,7.0,15.0,-999,-99.99,,,-99.99,,2013-01-22 10:43:00,
2013-01-22 06:54:00,-9.0,-99.9,30.18,WSW,256,9.0,15.0,-999,-99.99,,,-99.99,,2013-01-22 11:54:00,
2013-01-22 07:13:00,-9.0,-99.9,30.18,WSW,257,6.0,13.0,-999,-99.99,,,-99.99,,2013-01-22 12:13:00,
2013-01-22 08:24:00,-9.0,-99.9,30.19,WSW,255,8.0,15.0,-999,-99.99,,,-99.99,,2013-01-22 13:24:00,
2013-01-22 08:43:00,-9.0,-99.9,30.19,WSW,255,10.0,18.0,-999,-99.99,,,-99.99,,2013-01-22 13:43:00,
2013-01-22 09:54:00,-9.0,-99.9,30.21,WSW,254,8.0,13.0,-999,-99.99,,,-99.99,,2013-01-22 14:54:00,
2013-01-22 10:13:00,-8.0,-99.9,30.20,WSW,247,7.0,13.0,-999,-99.99,,,-99.99,,2013-01-22 15:13:00,
2013-01-22 11:24:00,-4.0,-99.9,30.21,WNW,288,6.0,14.0,-999,-99.99,,,-99.99,,2013-01-22 16:24:00,
2013-01-22 11:54:00,-2.0,-99.9,30.22,WNW,284,7.0,15.0,-999,-99.99,,,-99.99,,2013-01-22 16:54:00,
2013-01-22 12:04:00,-2.0,-99.9,30.22,WNW,284,7.0,15.0,-999,-99.99,,,-99.99,,2013-01-22 17:04:00,
2013-01-22 12:13:00,-1.0,-99.9,30.22,WNW,297,9.0,17.0,-999,-99.99,,,-99.99,,2013-01-22 17:13:00,
2013-01-22 21:23:00,-1.0,-99.9,30.19,WSW,250,11.0,19.0,-999,-99.99,,,-99.99,,2013-01-23 02:23:00,
2013-01-22 21:43:00,-1.0,-99.9,30.19,WSW,254,13.0,17.0,-999,-99.99,,,-99.99,,2013-01-23 02:43:00,
2013-01-22 22:53:00,-2.0,-99.9,30.17,West,260,11.0,23.0,-999,-99.99,,,-99.99,,2013-01-23 03:53:00,
2013-01-22 23:13:00,-2.0,-99.9,30.16,West,259,9.0,20.0,-999,-99.99,,,-99.99,,2013-01-23 04:13:00,